www.pogodaiklimat.ru
ПОГОДА в Казачинске

Архив погоды в Казачинске (Иркутская область, Россия)

Время
(UTC), дата
00 15.07
03 15.07
06 15.07
09 15.07
12 15.07
15 15.07
18 15.07
21 15.07
00 16.07
03 16.07
06 16.07
09 16.07
12 16.07
15 16.07
18 16.07
21 16.07
00 17.07
03 17.07
06 17.07
09 17.07
12 17.07
15 17.07
18 17.07
21 17.07
00 18.07
03 18.07
06 18.07
09 18.07
12 18.07
15 18.07
18 18.07
21 18.07
00 19.07
03 19.07
06 19.07
09 19.07
12 19.07
15 19.07
18 19.07
21 19.07
00 20.07
03 20.07
06 20.07
09 20.07
12 20.07
15 20.07
18 20.07
21 20.07
00 21.07
03 21.07
06 21.07
09 21.07
12 21.07
15 21.07
18 21.07
21 21.07
Ветер
(напр.,м/с)
Видим. Явления Облачность Т
(С)
Тd
(С)
f
(%)
Тe
(С)
Тes
(С)
Комфортность P
(гПа)
Po
(гПа)
Тmin
(С)
Tmax
(С)
R
(мм)
R24
(мм)
S
(см)
Ю 1 50 км {туман} 9/9 600 м
[Cb cap]
+15.6 +14.7 94 +16 +17 1007.8 966.5 +12.4
Ю 2 50 км {ливн. дождь} 9/9 600 м
[Cb cap]
+20.1 +16.1 78 +23 +25 комфорт 1006.7 966.2
Ю 2 50 км {ливн. дождь} 9/9 600 м
[Cb cap]
+22.1 +16.0 68 +26 +27 душно 1005.4 965.1
З 1 10 км гроза, ливневой дождь 9/9 600 м
[Cb cap]
+19.7 +17.8 89 +23 +24 комфорт 1005.6 965.1
штиль 0 50 км {гроза, ливн. дождь} 8/8 600 м
[Cb cap Ci fib]
+20.1 +17.9 87 +23 +23 комфорт 1005.8 965.3 +23.6 3
штиль 0 н/о дымка 8/8 600 м
[Cb cap]
+15.2 +14.5 96 +15 +15 1006.6 965.3
Ю 1 н/о туман на расстоянии 10/10 600 м
[Cb cap]
+15.8 +15.3 97 +16 +16 1006.8 965.6
З 1 50 км в посл. час гроза {ливн. дождь} 8/6 300 м
[Cb cap Ci fib]
+15.5 +15.2 98 +16 +16 1006.6 965.4
Ю 2 50 км {гроза, ливн. дождь} 10/6 300 м
[Cb cap Cs]
+16.7 +16.1 96 +17 +18 1007.0 965.9 +15.1 19
ЮВ 1 10 км дым 10/4 600 м
[Cb cap Cs]
+20.6 +17.0 80 +25 +32 комфорт 1006.0 965.6
З 1 10 км гроза без осадков 10/8 600 м
[Cb cap Cs]
+22.0 +17.1 74 +26 +29 душно 1005.3 965.0
Ю 1 {11} 10 км дым {гроза, ливн. дождь} 9/8 600 м
[Cb cap Ci fib]
+20.7 +16.9 79 +25 +27 комфорт 1005.4 964.9
СЗ 1 50 км {гроза, ливн. дождь} 9/3 1000 м
[Cu Sc Ci fib]
+19.7 +17.7 88 +23 +24 комфорт 1005.8 965.2 +24.2 0.8
З 1 н/о 9/3 600 м
[Cb cap Ci fib]
+16.2 +15.6 96 +17 +17 1007.0 965.9
Ю 1 н/о туман на расстоянии 8/0
[Ci fib]
+14.7 +14.3 97 +15 +15 1007.5 966.1
штиль 0 4000 м туман на расстоянии 9/4 600 м
[Cb cap Ci fib]
+13.9 +13.6 98 +13 +13 1007.4 965.9
Ю 1 10 км дым {мгла} 9/4 600 м
[Cb cap Ci fib]
+15.6 +15.2 97 +16 +19 1007.7 966.4 +13.8
ЮЗ 2 10 км дым 10/4 600 м
[Cb cap Cs]
+20.0 +16.3 79 +23 +29 комфорт 1006.6 966.0
ЮВ 1 10 км дым 10/3 600 м
[Cb cap Cs]
+24.5 +16.1 59 +28 +37 душно 1004.8 964.9
С 1 10 км дым 9/4 600 м
[Cb cap Ci fib]
+24.8 +16.9 61 +28 +32 жарко 1003.9 964.1
СЗ 1 10 км дым 9/0
[Ci fib]
+22.1 +18.0 78 +27 +27 душно 1004.2 964.1 +25.8
З 1 н/о дымка 8/0
[Ci fib]
+16.7 +15.9 95 +18 +18 1005.2 964.2
С 1 н/о дымка 6/0
[Ci fib]
+14.0 +13.6 97 +14 +14 1005.6 964.2
СЗ 1 500 м туман, небо видно 4/0
[Ci fib]
+13.7 +13.3 97 +14 +14 1005.3 963.8
штиль 0 500 м туман, небо видно 4/0
[Ci fib]
+14.6 +14.3 98 +14 +20 1004.9 963.7 +13.6
В 1 10 км дым {мгла} ясно +22.6 +17.4 72 +27 +42 душно 1002.6 962.6
СВ 2 10 км дым {мгла} 8/0
[Ac trans Ci fib]
+26.2 +15.7 52 +29 +39 жарко 1000.4 960.9
С 1 10 км дым 6/0
[Ci fib]
+26.8 +16.9 55 +31 +37 душно 998.7 959.4
СЗ 1 10 км 3/0
[Ci fib]
+23.0 +17.9 73 +28 +29 душно 998.8 959.0 +27.1
штиль 0 н/о дымка ясно +16.6 +16.0 96 +16 +16 999.9 959.2
штиль 0 н/о туман, небо видно ясно +13.7 +13.3 97 +13 +13 1000.2 958.9
штиль 0 500 м туман, небо видно ясно +12.8 +12.4 97 +12 +12 1000.4 959.0
штиль 0 4000 м в посл. час туман ясно +16.7 +16.2 97 +17 +23 1000.3 959.5 +12.4
СВ 2 10 км дым 3/3 1000 м
[Cu med, cong]
+25.1 +17.3 62 +29 +38 душно 998.5 958.9
С 1 10 км дым 9/6 600 м
[Cb cap Ci fib]
+26.6 +18.1 60 +31 +37 душно 997.7 958.3
С 3 10 км дым 9/5 600 м
[Cb cap Ac trans Ci fib]
+27.2 +16.9 53 +31 +32 душно 997.7 958.4
З 1 10 км дым 8/0
[Ci fib]
+24.2 +18.8 72 +29 +29 душно 998.4 958.7 +28.1
штиль 0 н/о дымка 4/0
[Ci fib]
+17.2 +16.4 95 +17 +17 1000.2 959.5
штиль 0 н/о дымка 3/0
[Ci fib]
+15.1 +14.7 97 +15 +15 1001.4 960.3
штиль 0 4000 м дымка 3/0
[Ci fib]
+13.8 +13.4 97 +13 +13 1002.0 960.7
штиль 0 4000 м туман на расстоянии 9/0
[Ci fib]
+17.4 +16.8 96 +17 +22 1001.9 961.2 +13.6
СВ 2 10 км дым 4/0
[Ci fib]
+25.1 +17.6 63 +29 +41 душно 1000.6 961.0
З 1 10 км дым 10/3 1000 м
[Sc Cs]
+27.7 +18.0 56 +32 +41 очень душно 999.7 960.4
С 1 10 км дым 10/0
[Cs]
+28.6 +15.6 45 +31 +37 жарко 998.4 959.2
СЗ 1 10 км дым 6/0
[Ci fib]
+23.8 +18.5 72 +28 +29 душно 999.1 959.3 +29.3
штиль 0 н/о дымка 8/0
[Ci fib]
+17.1 +16.1 94 +17 +17 1000.2 959.5
штиль 0 н/о дымка 10/0
[Cs]
+14.5 +13.9 96 +14 +14 1000.3 959.1
штиль 0 4000 м туман на расстоянии 9/0
[Ci fib]
+13.6 +13.2 97 +13 +13 1000.3 959.1
ЮЗ 1 10 км дым 9/8 1000 м
[Sc Ci fib]
+18.3 +17.0 92 +20 +21 1000.0 959.5 +13.2
З 1 10 км дым 9/8 1000 м
[Sc Ci fib]
+22.8 +18.2 75 +28 +31 душно 999.5 959.7
СЗ 1 10 км дым 9/9 600 м
[Cb cap]
+25.2 +19.3 70 +30 +32 душно 999.2 959.7
З 1 10 км дым {ливн. дождь} 9/9 600 м
[Cb cap]
+24.8 +20.3 76 +31 +31 очень душно 999.3 959.7
Ю 1 10 км слаб. ливневой дождь 10/10 600 м
[Cb cap]
+21.0 +19.7 92 +27 +27 душно 999.7 959.6 +26.1 0.5
ЮЗ 1 н/о слаб. ливневой дождь 9/9 600 м
[Cb cap]
+19.4 +18.8 96 +23 +23 комфорт 1000.6 960.2
Ю 1 н/о {ливн. дождь} 9/9 600 м
[Cb cap]
+18.9 +18.5 98 +22 +22 комфорт 1000.6 960.2
штиль 0 10 км туман на расстоянии 9/9 600 м
[Cb cap]
+18.0 +17.6 98 +18 +18 1000.9 960.3
Местоположение метеостанции Казачинск (Иркутская область, Россия): широта 56.32 долгота 107.60 высота над уровнем моря 357 м.
В архиве по умолчанию представлена погода в Казачинске за последнюю неделю. Архивные данные за месяц целиком и за предыдущие месяцы, начиная с января 2011 года, Вы можете получить, выбрав интересующий диапазон дат из раскрывающегося списка и нажав кнопку "Найти!".
*Определитесь, кто Вы:
Внимание! Время в таблицах - всемирное. Для получения местного времени необходимо прибавить поправку, которая равна 8 ч.
Некоторые строки с данными для отдельных станций могут быть выделены курсивом. Это означает, что фактические данные отсутствуют по различным причинам, а приведенные значения являются расчетными модельными данными для данного пункта наблюдений.
Смотрите также архив погоды в соседних городах и на ближайших метеорологических станциях:
Партнеры нашего сайта:      
Пояснения к столбцам:
  • Ветер - указаны скорость ветра в м/с - средняя за 10 мин, порывы в срок и между сроками (в фигурных скобках) и направление, откуда дует ветер: С - северный,
  • СВ - северо-восточный, В - восточный, ЮВ - юго-восточный, Ю - южный, ЮЗ - юго-западный, З - западный, СЗ - северо-западный.
  • Видимость - горизонтальная дальность видимости в метрах или километрах. При видимости от 1 до 10 км при отсутствии осадков обычно наблюдается дымка, при ухудшении видимости до 1 км и менее - туман. В сухую погоду видимость может ухудшаться дымом, пылью или мглою.
  • Явления - указаны атмосферные явления, наблюдавшиеся в срок или в последний час перед сроком; фигурными скобками обозначены явления, наблюдавшиеся между сроками (за 1-3 часа до срока); квадратными скобками обозначены град или гололедные отложения с указанием их диаметра в мм.
  • Облачность - указаны через наклонную черту общая и нижняя облачность в баллах и высота нижней границы облаков в метрах; квадратными скобками обозначены формы облаков: Ci - перистые, Cs - перисто-слоистые, Cc - перисто-кучевые, Ac - высококучевые, As - высокослоистые, Sc - слоисто-кучевые, Ns - слоисто-дождевые, Cu - кучевые, Cb - кучево-дождевые. Подробнее классификацию облаков см. в Атласе облаков (PDF).
  • T - Температура воздуха - температура, измеренная на высоте 2 м над землей.
  • Td - Температура точки росы - температура, при понижении до которой содержащийся в воздухе водяной пар достигнет насыщения.
  • f - Относительная влажность воздуха - влажноcть воздуха, измеренная на высоте 2 м над землей.
  • Te - Эффективная температура - температура, которую ощущает одетый по сезону человек в тени. Характеристика душности погоды. При расчете учитывается влияние влажности воздуха и скорости ветра на теплоощущения человека.
  • Tes - Эффективная температура на солнце - температура, которую ощущает человек, с поправкой на солнечный нагрев. Характеристика знойности погоды. Зависит от высоты солнца над горизонтом, облачности и скорости ветра. Ночью, в пасмурную погоду, а также при ветре 12 м/с и более поправка равна нулю.
  • P - Атмосферное давление - приведенное к уровню моря атмосферное давление.
  • Po - Атмосферное давление - измеренное на уровне метеостанции атмосферное давление.
  • Tmin - Минимальная температура - минимум температуры воздуха на высоте 2 м над землей.
  • Tmax - Максимальная температура - максимум температуры воздуха на высоте 2 м над землей.
  • R - Количество осадков - Количество выпавших осадков за период времени, мм. При наведении курсора мыши на число - период времени, за который выпало указанное количество осадков.
  • R24 - Количество осадков - Количество выпавших осадков за 24 часа, мм.
  • S - Снежный покров - Высота снежного покрова, см. При наведении курсора мыши на число - состояние снежного покрова и степень покрытия местности в баллах.